Miscellaneous Local Product
Issued by NWS North Platte, NE

Home | Current Version | Previous Version | Text Only | Print | Product List | Glossary On
Versions: 1 2 3 4 5 6 7 8 9 10 11 12 13 14 15 16 17 18 19 20 21 22 23 24 25 26 27 28 29 30 31 32 33 34 35 36 37 38 39 40 41 42 43 44 45 46 47 48 49 50
000
AXUS43 KLBF 040810
MISLBF


WESTERN AND NORTH CENTRAL NEBRASKA HOURLY WEATHER ROUNDUP
NATIONAL WEATHER SERVICE NORTH PLATTE NE
300 AM CDT TUE AUG 04 2015

***STATIONS NOT REPORTING VARIABLES SUCH AS SKY/WEATHER OR
PRESSURE ARE PROVIDED BY THE NEBRASKA DEPARTMENT OF
ROADS...RAWS...AND APRS NETWORKS...AND ARE NOT UNDER
NATIONAL WEATHER SERVICE QUALITY CONTROL***

...OBSERVATIONS IN AND NEAR THE EASTERN PANHANDLE OF NEBRASKA...

CITY           SKY/WX    TMP DP  RH WIND       PRES   REMARKS
PINE RIDGE     MOCLDY    69  63  81 SW7       29.93S
CHADRON        MOCLDY    62  58  86 W6        29.92S
ALLIANCE       MOCLDY    64  54  69 CALM      29.98R
SIDNEY         MOCLDY    58  49  72 SW5       30.02F
BIG SPRINGS      N/A     62  58  88 CALM        N/A
$$

...OBSERVATIONS IN NORTH CENTRAL NEBRASKA...

CITY           SKY/WX    TMP DP  RH WIND       PRES   REMARKS
THEDFORD       PTCLDY    66  64  92 S5        29.97F
AINSWORTH      CLOUDY    69  63  80 S10       29.95F
O`NEILL        TSTM      63  60  90 S17G23    30.02R
ORD            CLOUDY    68  63  84 SE7       29.93F
BROKEN BOW     CLOUDY    68  63  84 SE6       29.95
SPRINGVIEW       N/A     64  60  86 CALM        N/A
CHAMBERS         N/A     64  60  87 N3G16       N/A
EWING            N/A     65  62  90 NW3G14      N/A
$$

...OBSERVATIONS IN SOUTHWEST NEBRASKA AND FAR NORTHEAST COLORADO...

CITY           SKY/WX    TMP DP  RH WIND       PRES   REMARKS
WRAY           FAIR      59  53  78 CALM      29.99F
HOLYOKE        FAIR      61  54  77 SW6       29.99F
IMPERIAL       PTCLDY    64  57  78 VRB3      29.98F
OGALLALA       MOCLDY    69  68  97 E3        29.97F
NORTH PLATTE   CLEAR     66  64  93 E8        29.96F
MCCOOK         MOCLDY    70  69  97 NE6       29.94F FOG
LEXINGTON      CLOUDY    70  67  91 E9        29.95F
PAXTON           N/A     71  69  93 SE3         N/A
BRADY            N/A     65  63  92 CALM        N/A
CALLAWAY         N/A     66  65  96 SE9         N/A
$$

...NORTH PLATTE AREA...

CITY           SKY/WX    TMP DP  RH WIND       PRES   REMARKS
AIRPORT        CLEAR     66  64  93 E8        29.96F
DOWNTOWN         N/A     68  66  93 CALM        N/A
HILLCREST        N/A     66  65  96 E5          N/A
$$

...SOME WEATHER OBSERVATIONS FROM AROUND THE REGION...

CITY           SKY/WX    TMP DP  RH WIND       PRES   REMARKS
DENVER         PTCLDY    60  51  72 SW6       30.06F
LARAMIE        LGT RAIN  55  51  86 CALM      30.18F
CHEYENNE       CLOUDY    64  46  52 W9        30.08F
SCOTTSBLUFF    PTCLDY    65  55  70 E3        29.97F
RAPID CITY     CLOUDY    68  59  73 E12       29.95F
PIERRE         MOCLDY    65  56  72 E7        29.91F
WINNER         TSTM      69  63  81 SE15      29.91F
SIOUX FALLS    CLEAR     58  56  93 NE5       29.96F
OMAHA          MOCLDY    72  62  71 E8        29.95F
GRAND ISLAND   MOCLDY    67  64  90 SE6       29.94F
KANSAS CITY    PTCLDY    72  66  81 SE8       29.93F
WICHITA        CLOUDY    74  67  78 S7        29.92F
HAYS           MOCLDY    73  63  68 S5        29.94R
LIBERAL        CLOUDY    72  64  78 W9        29.99R
GOODLAND       CLOUDY    66  60  81 SE6       29.99F
$$



USA.gov is the U.S. government's official web portal to all federal, state and local government web resources and services.